Station Historical Data
Daily Summary for January 24, 2018 Units:  English    Metric   Both
« Previous Day
Next Day »
Daily Weekly Monthly Yearly Custom
  High: Low: Average:
Temperature: 26.4 °F 18.4 °F 21.5 °F
Dew Point: 20.5 °F 11.9 °F 14.9 °F
Humidity: 78% 71% 75%
Wind Speed: 10.0mph 0.0mph 3.7mph
Wind Gust: 21.0mph - -
Wind- - NW
Pressure: 30.33 in 29.90 in -
Precipitation: 0.00 in    
Historical Graphs
 
 
Tabular Data for January 24, 2018
Time Temperature Dew Point Pressure Wind Wind Speed Wind Gust Humidity Rainfall Rate (Hourly)
01:45 26.4 °F 20.2 °F 29.90 in West 9.0 mph 20.0 mph 77% 0.00 in
01:50 26.4 °F 20.2 °F 29.90 in West 8.0 mph 20.0 mph 77% 0.00 in
01:55 26.4 °F 20.2 °F 29.91 in West 8.0 mph 16.0 mph 77% 0.00 in
02:00 26.4 °F 20.5 °F 29.91 in WNW 7.0 mph 18.0 mph 78% 0.00 in
02:05 26.3 °F 20.1 °F 29.92 in WNW 9.0 mph 18.0 mph 77% 0.00 in
02:10 26.3 °F 20.1 °F 29.92 in West 8.0 mph 18.0 mph 77% 0.00 in
02:15 26.4 °F 20.2 °F 29.93 in West 10.0 mph 19.0 mph 77% 0.00 in
02:20 26.3 °F 20.1 °F 29.93 in West 8.0 mph 19.0 mph 77% 0.00 in
02:25 26.2 °F 20.0 °F 29.94 in West 9.0 mph 21.0 mph 77% 0.00 in
02:30 26.2 °F 20.0 °F 29.94 in West 8.0 mph 21.0 mph 77% 0.00 in
02:35 26.1 °F 19.9 °F 29.94 in WNW 8.0 mph 21.0 mph 77% 0.00 in
02:40 26.1 °F 19.6 °F 29.95 in WNW 9.0 mph 17.0 mph 76% 0.00 in
02:45 26.0 °F 19.8 °F 29.95 in West 8.0 mph 17.0 mph 77% 0.00 in
02:50 25.9 °F 19.7 °F 29.95 in West 8.0 mph 17.0 mph 77% 0.00 in
02:55 25.7 °F 19.5 °F 29.96 in WNW 9.0 mph 18.0 mph 77% 0.00 in
03:00 25.5 °F 19.3 °F 29.96 in WNW 8.0 mph 18.0 mph 77% 0.00 in
03:05 25.4 °F 19.2 °F 29.96 in WNW 7.0 mph 18.0 mph 77% 0.00 in
03:10 25.4 °F 19.2 °F 29.96 in WNW 9.0 mph 17.0 mph 77% 0.00 in
03:15 25.2 °F 19.0 °F 29.97 in WNW 7.0 mph 17.0 mph 77% 0.00 in
03:20 25.2 °F 19.0 °F 29.97 in WNW 8.0 mph 16.0 mph 77% 0.00 in
03:25 25.1 °F 18.9 °F 29.97 in WNW 7.0 mph 16.0 mph 77% 0.00 in
03:30 25.1 °F 18.9 °F 29.98 in WNW 8.0 mph 16.0 mph 77% 0.00 in
03:35 25.1 °F 18.6 °F 29.98 in West 8.0 mph 16.0 mph 76% 0.00 in
03:40 25.1 °F 18.6 °F 29.98 in West 7.0 mph 14.0 mph 76% 0.00 in
03:45 25.0 °F 18.5 °F 29.99 in West 8.0 mph 14.0 mph 76% 0.00 in
03:50 25.0 °F 18.5 °F 29.99 in West 9.0 mph 16.0 mph 76% 0.00 in
03:55 25.0 °F 18.5 °F 29.99 in West 6.0 mph 16.0 mph 76% 0.00 in
04:00 25.0 °F 18.5 °F 29.99 in West 7.0 mph 16.0 mph 76% 0.00 in
04:05 25.0 °F 18.5 °F 30.00 in West 6.0 mph 13.0 mph 76% 0.00 in
04:15 25.0 °F 18.5 °F 30.00 in West 7.0 mph 12.0 mph 76% 0.00 in
04:20 24.9 °F 18.4 °F 30.01 in West 7.0 mph 14.0 mph 76% 0.00 in
04:25 25.0 °F 18.5 °F 30.01 in West 5.0 mph 14.0 mph 76% 0.00 in
04:30 24.9 °F 18.4 °F 30.01 in NW 5.0 mph 14.0 mph 76% 0.00 in
04:40 24.9 °F 18.7 °F 30.02 in WNW 4.0 mph 12.0 mph 77% 0.00 in
04:45 24.8 °F 18.6 °F 30.02 in WNW 4.0 mph 10.0 mph 77% 0.00 in
04:50 24.7 °F 18.5 °F 30.02 in NW 5.0 mph 13.0 mph 77% 0.00 in
04:55 24.5 °F 18.3 °F 30.03 in NW 5.0 mph 13.0 mph 77% 0.00 in
05:00 24.4 °F 18.5 °F 30.03 in NW 5.0 mph 13.0 mph 78% 0.00 in
05:05 24.4 °F 18.5 °F 30.03 in WNW 4.0 mph 11.0 mph 78% 0.00 in
05:10 24.2 °F 18.3 °F 30.03 in WNW 5.0 mph 10.0 mph 78% 0.00 in
05:15 24.0 °F 18.1 °F 30.04 in NW 5.0 mph 11.0 mph 78% 0.00 in
05:20 23.8 °F 17.9 °F 30.04 in NW 6.0 mph 12.0 mph 78% 0.00 in
05:25 23.6 °F 17.4 °F 30.04 in NW 6.0 mph 12.0 mph 77% 0.00 in
05:30 23.5 °F 17.3 °F 30.05 in WNW 6.0 mph 12.0 mph 77% 0.00 in
05:35 23.4 °F 17.3 °F 30.05 in WNW 7.0 mph 13.0 mph 77% 0.00 in
05:40 23.3 °F 17.5 °F 30.05 in WNW 6.0 mph 13.0 mph 78% 0.00 in
05:45 23.2 °F 17.4 °F 30.05 in West 6.0 mph 13.0 mph 78% 0.00 in
05:50 23.2 °F 17.1 °F 30.05 in WNW 6.0 mph 12.0 mph 77% 0.00 in
06:00 23.1 °F 17.0 °F 30.06 in NW 5.0 mph 13.0 mph 77% 0.00 in
06:05 23.1 °F 17.3 °F 30.07 in WNW 6.0 mph 14.0 mph 78% 0.00 in
06:10 23.0 °F 16.9 °F 30.07 in West 7.0 mph 14.0 mph 77% 0.00 in
06:15 23.0 °F 16.9 °F 30.07 in WNW 7.0 mph 15.0 mph 77% 0.00 in
06:20 22.9 °F 16.8 °F 30.08 in WNW 6.0 mph 15.0 mph 77% 0.00 in
06:25 22.9 °F 16.8 °F 30.08 in West 6.0 mph 15.0 mph 77% 0.00 in
06:30 22.7 °F 16.6 °F 30.09 in WNW 7.0 mph 13.0 mph 77% 0.00 in
06:40 22.6 °F 16.2 °F 30.09 in NW 8.0 mph 15.0 mph 76% 0.00 in
06:45 22.4 °F 16.3 °F 30.09 in NW 6.0 mph 15.0 mph 77% 0.00 in
06:50 22.3 °F 16.2 °F 30.10 in WNW 7.0 mph 15.0 mph 77% 0.00 in
06:55 22.1 °F 16.0 °F 30.10 in WNW 8.0 mph 15.0 mph 77% 0.00 in
07:00 22.0 °F 15.9 °F 30.11 in WNW 7.0 mph 15.0 mph 77% 0.00 in
07:05 21.9 °F 15.8 °F 30.11 in NW 5.0 mph 15.0 mph 77% 0.00 in
07:10 21.6 °F 15.8 °F 30.11 in NNW 4.0 mph 13.0 mph 78% 0.00 in
07:15 21.5 °F 15.7 °F 30.12 in NW 5.0 mph 12.0 mph 78% 0.00 in
07:20 21.4 °F 15.6 °F 30.12 in NW 4.0 mph 10.0 mph 78% 0.00 in
07:25 21.3 °F 15.5 °F 30.12 in NW 4.0 mph 10.0 mph 78% 0.00 in
07:30 21.2 °F 15.4 °F 30.12 in NW 5.0 mph 15.0 mph 78% 0.00 in
07:35 21.2 °F 15.4 °F 30.13 in NW 5.0 mph 15.0 mph 78% 0.00 in
07:40 21.1 °F 15.3 °F 30.13 in NW 5.0 mph 15.0 mph 78% 0.00 in
07:45 21.0 °F 15.2 °F 30.13 in NW 5.0 mph 13.0 mph 78% 0.00 in
07:50 20.9 °F 15.1 °F 30.14 in NW 5.0 mph 13.0 mph 78% 0.00 in
07:55 20.9 °F 15.1 °F 30.14 in NW 6.0 mph 13.0 mph 78% 0.00 in
08:00 20.8 °F 15.0 °F 30.14 in NW 5.0 mph 13.0 mph 78% 0.00 in
08:10 20.7 °F 14.9 °F 30.15 in NW 5.0 mph 12.0 mph 78% 0.00 in
08:15 20.6 °F 14.8 °F 30.15 in NNW 5.0 mph 11.0 mph 78% 0.00 in
08:20 20.5 °F 14.7 °F 30.15 in NNW 4.0 mph 10.0 mph 78% 0.00 in
08:25 20.5 °F 14.7 °F 30.15 in NNW 4.0 mph 10.0 mph 78% 0.00 in
08:30 20.4 °F 14.6 °F 30.16 in NNW 4.0 mph 10.0 mph 78% 0.00 in
08:35 20.3 °F 14.5 °F 30.16 in NNW 5.0 mph 10.0 mph 78% 0.00 in
08:40 20.4 °F 14.6 °F 30.16 in NNW 4.0 mph 10.0 mph 78% 0.00 in
08:45 20.3 °F 14.5 °F 30.16 in NW 5.0 mph 10.0 mph 78% 0.00 in
08:50 20.3 °F 14.5 °F 30.16 in NW 5.0 mph 10.0 mph 78% 0.00 in
08:55 20.2 °F 14.4 °F 30.16 in NW 5.0 mph 10.0 mph 78% 0.00 in
09:00 20.2 °F 14.4 °F 30.17 in NW 4.0 mph 10.0 mph 78% 0.00 in
09:05 20.1 °F 14.3 °F 30.17 in NW 4.0 mph 10.0 mph 78% 0.00 in
09:10 20.1 °F 14.0 °F 30.17 in NW 6.0 mph 10.0 mph 77% 0.00 in
09:15 20.1 °F 14.3 °F 30.17 in NW 5.0 mph 10.0 mph 78% 0.00 in
09:20 20.2 °F 14.4 °F 30.17 in NW 4.0 mph 10.0 mph 78% 0.00 in
09:30 20.3 °F 14.2 °F 30.18 in NW 6.0 mph 11.0 mph 77% 0.00 in
09:35 20.4 °F 14.3 °F 30.18 in NW 5.0 mph 11.0 mph 77% 0.00 in
09:40 20.6 °F 14.5 °F 30.18 in NW 6.0 mph 16.0 mph 77% 0.00 in
09:45 20.7 °F 14.6 °F 30.18 in NW 4.0 mph 16.0 mph 77% 0.00 in
09:50 20.9 °F 14.8 °F 30.18 in NW 4.0 mph 16.0 mph 77% 0.00 in
09:55 20.7 °F 14.6 °F 30.18 in NNW 5.0 mph 13.0 mph 77% 0.00 in
10:00 20.6 °F 14.2 °F 30.19 in NNW 5.0 mph 13.0 mph 76% 0.00 in
10:05 20.8 °F 14.4 °F 30.19 in NW 4.0 mph 13.0 mph 76% 0.00 in
10:10 21.3 °F 14.9 °F 30.19 in NW 2.0 mph 10.0 mph 76% 0.00 in
10:15 21.4 °F 14.4 °F 30.19 in NW 4.0 mph 8.0 mph 74% 0.00 in
10:25 21.4 °F 13.8 °F 30.20 in NW 5.0 mph 11.0 mph 72% 0.00 in
10:30 21.2 °F 13.6 °F 30.20 in NW 5.0 mph 11.0 mph 72% 0.00 in
10:35 20.8 °F 13.2 °F 30.20 in NNW 6.0 mph 13.0 mph 72% 0.00 in
10:40 20.8 °F 13.2 °F 30.20 in NNW 6.0 mph 13.0 mph 72% 0.00 in
10:45 20.9 °F 13.3 °F 30.20 in NW 5.0 mph 13.0 mph 72% 0.00 in
10:50 21.0 °F 13.4 °F 30.20 in WNW 5.0 mph 11.0 mph 72% 0.00 in
10:55 21.6 °F 13.6 °F 30.20 in NW 3.0 mph 10.0 mph 71% 0.00 in
11:05 21.1 °F 13.2 °F 30.20 in NW 5.0 mph 11.0 mph 71% 0.00 in
11:10 21.1 °F 13.5 °F 30.19 in NW 5.0 mph 11.0 mph 72% 0.00 in
11:15 21.1 °F 13.5 °F 30.19 in NNW 5.0 mph 11.0 mph 72% 0.00 in
11:20 21.0 °F 13.7 °F 30.19 in NW 5.0 mph 11.0 mph 73% 0.00 in
11:25 20.9 °F 13.6 °F 30.19 in NW 5.0 mph 13.0 mph 73% 0.00 in
11:30 20.9 °F 13.6 °F 30.19 in NNW 5.0 mph 13.0 mph 73% 0.00 in
11:35 21.1 °F 14.4 °F 30.19 in NNW 4.0 mph 13.0 mph 75% 0.00 in
11:40 21.5 °F 14.8 °F 30.19 in NW 4.0 mph 10.0 mph 75% 0.00 in
11:45 22.0 °F 15.3 °F 30.19 in WNW 5.0 mph 10.0 mph 75% 0.00 in
11:50 21.5 °F 14.2 °F 30.19 in NW 7.0 mph 11.0 mph 73% 0.00 in
11:55 21.6 °F 14.6 °F 30.18 in NW 4.0 mph 11.0 mph 74% 0.00 in
12:00 21.4 °F 14.4 °F 30.18 in NNW 4.0 mph 11.0 mph 74% 0.00 in
12:05 21.4 °F 14.4 °F 30.18 in NNW 4.0 mph 10.0 mph 74% 0.00 in
12:10 21.2 °F 14.5 °F 30.18 in NNW 5.0 mph 12.0 mph 75% 0.00 in
12:20 21.1 °F 14.1 °F 30.18 in NNW 4.0 mph 12.0 mph 74% 0.00 in
12:25 21.2 °F 13.9 °F 30.18 in NW 5.0 mph 11.0 mph 73% 0.00 in
12:30 21.5 °F 13.9 °F 30.18 in WNW 5.0 mph 14.0 mph 72% 0.00 in
12:35 21.4 °F 13.8 °F 30.18 in NW 4.0 mph 14.0 mph 72% 0.00 in
12:40 21.3 °F 13.7 °F 30.18 in NNW 4.0 mph 14.0 mph 72% 0.00 in
12:45 21.6 °F 14.0 °F 30.17 in NW 5.0 mph 12.0 mph 72% 0.00 in
12:50 21.6 °F 14.0 °F 30.18 in NW 4.0 mph 12.0 mph 72% 0.00 in
12:55 21.4 °F 14.1 °F 30.18 in NNW 4.0 mph 12.0 mph 73% 0.00 in
13:00 21.5 °F 14.5 °F 30.18 in NNW 4.0 mph 9.0 mph 74% 0.00 in
13:05 20.9 °F 13.9 °F 30.18 in NNW 4.0 mph 9.0 mph 74% 0.00 in
13:10 21.1 °F 14.1 °F 30.17 in North 3.0 mph 9.0 mph 74% 0.00 in
13:15 21.1 °F 14.1 °F 30.17 in NNW 3.0 mph 8.0 mph 74% 0.00 in
13:20 20.7 °F 13.4 °F 30.18 in NNW 4.0 mph 8.0 mph 73% 0.00 in
13:25 20.6 °F 13.3 °F 30.18 in NNW 5.0 mph 11.0 mph 73% 0.00 in
13:30 21.0 °F 14.0 °F 30.17 in NNW 3.0 mph 11.0 mph 74% 0.00 in
13:35 21.1 °F 13.5 °F 30.18 in WNW 5.0 mph 11.0 mph 72% 0.00 in
13:40 21.5 °F 13.9 °F 30.18 in WNW 3.0 mph 9.0 mph 72% 0.00 in
13:45 21.4 °F 13.8 °F 30.18 in NNW 4.0 mph 9.0 mph 72% 0.00 in
13:50 21.5 °F 13.9 °F 30.18 in North 3.0 mph 7.0 mph 72% 0.00 in
13:55 22.2 °F 14.9 °F 30.18 in NW 3.0 mph 7.0 mph 73% 0.00 in
14:00 22.0 °F 14.7 °F 30.18 in NW 3.0 mph 6.0 mph 73% 0.00 in
14:05 21.2 °F 13.6 °F 30.18 in North 5.0 mph 9.0 mph 72% 0.00 in
14:10 21.2 °F 14.2 °F 30.18 in North 3.0 mph 9.0 mph 74% 0.00 in
14:15 21.4 °F 14.4 °F 30.18 in NNW 4.0 mph 9.0 mph 74% 0.00 in
14:20 22.1 °F 14.4 °F 30.18 in WNW 3.0 mph 9.0 mph 72% 0.00 in
14:25 22.2 °F 14.5 °F 30.18 in WNW 3.0 mph 9.0 mph 72% 0.00 in
14:30 22.0 °F 14.3 °F 30.18 in NW 3.0 mph 8.0 mph 72% 0.00 in
14:35 22.1 °F 14.1 °F 30.18 in NW 4.0 mph 8.0 mph 71% 0.00 in
14:40 22.4 °F 14.7 °F 30.18 in WNW 3.0 mph 8.0 mph 72% 0.00 in
14:45 22.3 °F 14.3 °F 30.19 in WNW 4.0 mph 10.0 mph 71% 0.00 in
14:55 21.8 °F 13.8 °F 30.19 in NW 4.0 mph 10.0 mph 71% 0.00 in
15:00 21.8 °F 14.2 °F 30.19 in NNW 4.0 mph 10.0 mph 72% 0.00 in
15:05 22.1 °F 14.4 °F 30.19 in North 4.0 mph 10.0 mph 72% 0.00 in
15:10 21.8 °F 14.2 °F 30.20 in North 5.0 mph 10.0 mph 72% 0.00 in
15:15 21.8 °F 14.5 °F 30.20 in NNW 3.0 mph 9.0 mph 73% 0.00 in
15:20 21.9 °F 14.6 °F 30.20 in NW 3.0 mph 9.0 mph 73% 0.00 in
15:25 22.1 °F 14.4 °F 30.20 in NW 4.0 mph 9.0 mph 72% 0.00 in
15:30 22.3 °F 14.6 °F 30.21 in NNW 4.0 mph 10.0 mph 72% 0.00 in
15:35 22.3 °F 14.6 °F 30.21 in NNW 4.0 mph 10.0 mph 72% 0.00 in
15:40 22.0 °F 14.0 °F 30.21 in NW 3.0 mph 10.0 mph 71% 0.00 in
15:58 22.2 °F 14.5 °F 30.21 in WNW 5.0 mph 10.0 mph 72% 0.00 in
16:05 22.3 °F 14.6 °F 30.21 in NW 5.0 mph 8.0 mph 72% 0.00 in
16:10 22.0 °F 14.0 °F 30.21 in WNW 2.0 mph 7.0 mph 71% 0.00 in
16:15 21.9 °F 13.9 °F 30.21 in NW 3.0 mph 5.0 mph 71% 0.00 in
16:20 21.7 °F 14.1 °F 30.22 in NW 5.0 mph 9.0 mph 72% 0.00 in
16:25 21.5 °F 13.9 °F 30.22 in NW 4.0 mph 9.0 mph 72% 0.00 in
16:30 21.5 °F 13.9 °F 30.22 in NW 3.0 mph 7.0 mph 72% 0.00 in
16:35 21.6 °F 14.3 °F 30.23 in NW 2.0 mph 4.0 mph 73% 0.00 in
16:40 21.6 °F 14.3 °F 30.23 in WNW 6.0 mph 7.0 mph 73% 0.00 in
16:45 21.5 °F 14.2 °F 30.23 in WNW 4.0 mph 6.0 mph 73% 0.00 in
16:50 21.3 °F 14.0 °F 30.23 in NW 1.0 mph 7.0 mph 73% 0.00 in
16:55 21.2 °F 13.9 °F 30.23 in NNW 3.0 mph 8.0 mph 73% 0.00 in
17:00 21.1 °F 13.8 °F 30.24 in NNW 3.0 mph 8.0 mph 73% 0.00 in
17:05 20.9 °F 13.6 °F 30.24 in NW 3.0 mph 8.0 mph 73% 0.00 in
17:10 20.6 °F 13.3 °F 30.24 in NNW 2.0 mph 6.0 mph 73% 0.00 in
17:15 20.5 °F 13.5 °F 30.24 in NW 2.0 mph 5.0 mph 74% 0.00 in
17:20 20.3 °F 13.3 °F 30.25 in NW 1.0 mph 4.0 mph 74% 0.00 in
17:25 20.2 °F 13.2 °F 30.25 in NW 2.0 mph 5.0 mph 74% 0.00 in
17:30 20.1 °F 13.4 °F 30.24 in NW 3.0 mph 6.0 mph 75% 0.00 in
17:35 19.9 °F 13.3 °F 30.25 in NNW 2.0 mph 4.0 mph 75% 0.00 in
17:40 19.7 °F 13.1 °F 30.25 in North 3.0 mph 6.0 mph 75% 0.00 in
17:45 19.7 °F 13.1 °F 30.25 in Calm   3.0 mph 75% 0.00 in
17:50 19.6 °F 13.0 °F 30.25 in North 1.0 mph 4.0 mph 75% 0.00 in
17:55 19.4 °F 13.1 °F 30.25 in North 2.0 mph 3.0 mph 76% 0.00 in
18:00 19.3 °F 13.0 °F 30.25 in North 1.0 mph 3.0 mph 76% 0.00 in
18:05 19.3 °F 13.3 °F 30.26 in Calm   3.0 mph 77% 0.00 in
18:10 19.1 °F 13.1 °F 30.26 in Calm   3.0 mph 77% 0.00 in
18:15 19.0 °F 13.0 °F 30.26 in North 1.0 mph 4.0 mph 77% 0.00 in
18:20 19.0 °F 12.7 °F 30.27 in North 2.0 mph 4.0 mph 76% 0.00 in
18:25 18.8 °F 12.5 °F 30.27 in North 1.0 mph 4.0 mph 76% 0.00 in
18:30 18.9 °F 12.6 °F 30.27 in Calm     76% 0.00 in
18:35 18.7 °F 12.7 °F 30.27 in Calm     77% 0.00 in
18:40 18.6 °F 12.6 °F 30.27 in Calm     77% 0.00 in
18:45 18.5 °F 12.5 °F 30.27 in NNW 2.0 mph 2.0 mph 77% 0.00 in
18:50 18.4 °F 12.4 °F 30.27 in Calm   3.0 mph 77% 0.00 in
18:55 18.5 °F 12.5 °F 30.27 in Calm   3.0 mph 77% 0.00 in
19:00 18.5 °F 12.5 °F 30.28 in Calm   2.0 mph 77% 0.00 in
19:05 18.6 °F 12.6 °F 30.28 in Calm   2.0 mph 77% 0.00 in
19:10 18.6 °F 12.3 °F 30.28 in Calm   4.0 mph 76% 0.00 in
19:15 18.7 °F 12.4 °F 30.28 in NNW 1.0 mph 4.0 mph 76% 0.00 in
19:20 18.7 °F 12.1 °F 30.28 in NNW 1.0 mph 3.0 mph 75% 0.00 in
19:25 18.7 °F 12.1 °F 30.28 in Calm   1.0 mph 75% 0.00 in
19:30 18.7 °F 12.1 °F 30.28 in Calm     75% 0.00 in
19:35 18.7 °F 12.1 °F 30.29 in Calm     75% 0.00 in
19:40 18.8 °F 11.9 °F 30.29 in Calm     74% 0.00 in
19:45 18.7 °F 12.1 °F 30.29 in Calm     75% 0.00 in
19:50 18.8 °F 12.2 °F 30.29 in Calm     75% 0.00 in
19:55 18.8 °F 12.2 °F 30.29 in Calm     75% 0.00 in
20:00 19.0 °F 12.4 °F 30.30 in Calm   2.0 mph 75% 0.00 in
20:05 19.1 °F 12.5 °F 30.30 in Calm   2.0 mph 75% 0.00 in
20:10 19.1 °F 12.5 °F 30.30 in NNW 1.0 mph 2.0 mph 75% 0.00 in
20:15 19.2 °F 12.6 °F 30.30 in NNW 1.0 mph 2.0 mph 75% 0.00 in
20:20 19.1 °F 12.5 °F 30.30 in Calm   1.0 mph 75% 0.00 in
20:25 19.0 °F 12.7 °F 30.30 in Calm     76% 0.00 in
20:30 19.0 °F 12.7 °F 30.30 in Calm     76% 0.00 in
20:35 19.1 °F 12.8 °F 30.30 in Calm     76% 0.00 in
20:40 19.1 °F 12.8 °F 30.30 in Calm     76% 0.00 in
20:45 19.1 °F 12.8 °F 30.31 in Calm     76% 0.00 in
20:50 19.3 °F 13.0 °F 30.31 in Calm   1.0 mph 76% 0.00 in
20:55 19.3 °F 13.0 °F 30.31 in Calm   2.0 mph 76% 0.00 in
21:00 19.2 °F 12.9 °F 30.31 in Calm     76% 0.00 in
21:05 19.3 °F 13.0 °F 30.31 in Calm   1.0 mph 76% 0.00 in
21:10 19.3 °F 13.0 °F 30.31 in Calm     76% 0.00 in
21:15 19.3 °F 13.3 °F 30.31 in Calm   2.0 mph 77% 0.00 in
21:20 19.3 °F 13.0 °F 30.31 in Calm   2.0 mph 76% 0.00 in
21:25 19.4 °F 13.1 °F 30.31 in Calm     76% 0.00 in
21:30 19.5 °F 12.9 °F 30.31 in Calm     75% 0.00 in
21:35 19.4 °F 13.1 °F 30.31 in Calm     76% 0.00 in
21:40 19.4 °F 13.1 °F 30.31 in Calm     76% 0.00 in
21:45 19.4 °F 13.1 °F 30.31 in Calm     76% 0.00 in
21:50 19.4 °F 13.4 °F 30.31 in Calm     77% 0.00 in
21:55 19.6 °F 13.6 °F 30.31 in Calm     77% 0.00 in
22:00 19.7 °F 13.4 °F 30.32 in Calm     76% 0.00 in
22:05 19.7 °F 13.4 °F 30.31 in Calm     76% 0.00 in
22:10 19.8 °F 13.5 °F 30.31 in NNW 2.0 mph 4.0 mph 76% 0.00 in
22:15 19.9 °F 13.6 °F 30.31 in Calm   2.0 mph 76% 0.00 in
22:20 19.9 °F 13.6 °F 30.31 in Calm   1.0 mph 76% 0.00 in
22:25 19.9 °F 13.6 °F 30.31 in Calm   1.0 mph 76% 0.00 in
22:30 20.0 °F 13.6 °F 30.32 in Calm     76% 0.00 in
22:35 20.1 °F 13.7 °F 30.32 in Calm     76% 0.00 in
22:40 20.1 °F 14.0 °F 30.32 in Calm     77% 0.00 in
22:45 20.2 °F 14.1 °F 30.32 in Calm   4.0 mph 77% 0.00 in
22:50 20.2 °F 13.8 °F 30.32 in NNW 1.0 mph 3.0 mph 76% 0.00 in
22:55 20.3 °F 13.9 °F 30.32 in NNW 2.0 mph 4.0 mph 76% 0.00 in
23:00 20.5 °F 13.8 °F 30.32 in NNW 2.0 mph 4.0 mph 75% 0.00 in
23:05 20.5 °F 13.8 °F 30.32 in NW 2.0 mph 4.0 mph 75% 0.00 in
23:10 20.6 °F 13.9 °F 30.33 in NW 3.0 mph 4.0 mph 75% 0.00 in
23:15 20.5 °F 13.8 °F 30.32 in NW 3.0 mph 4.0 mph 75% 0.00 in
23:20 20.4 °F 13.7 °F 30.32 in NW 1.0 mph 4.0 mph 75% 0.00 in
23:25 20.4 °F 13.7 °F 30.33 in NW 1.0 mph 4.0 mph 75% 0.00 in
23:30 20.4 °F 13.7 °F 30.32 in NW 1.0 mph 3.0 mph 75% 0.00 in
23:35 20.3 °F 13.6 °F 30.33 in NW 1.0 mph 4.0 mph 75% 0.00 in
23:40 20.3 °F 13.6 °F 30.33 in NW 2.0 mph 4.0 mph 75% 0.00 in
23:45 20.3 °F 13.6 °F 30.33 in NW 2.0 mph 5.0 mph 75% 0.00 in
23:50 20.3 °F 13.6 °F 30.33 in NNW 2.0 mph 5.0 mph 75% 0.00 in
23:55 20.4 °F 13.7 °F 30.33 in Calm   4.0 mph 75% 0.00 in
Buffalo, New York, USA
Compliments of Weather Underground - 2.25 mb